• în Republica Moldova
  • Lista ţărilor
  • Pe 7 zile
  • Temperatura apei
  • Hartă satelitară
  • Meteo pe hartă
  • Widget-uri
  • user-avatar
    Intrare

    Meteo pe oră la Berezovka

    Astăzi, 15 Noiembrie, Joi

    Timp Temperatura Precipitaţii Vânt Presiune Umiditate
    00:00 +1°C° 0.1 mm 3 m/s 753 mmHg 94%
    01:00 0°C° 0.1 mm 3 m/s 753 mmHg 94%
    02:00 0°C° 0.1 mm 3 m/s 754 mmHg 94%
    03:00 0°C° 0.1 mm 3 m/s 754 mmHg 94%
    04:00 -1°C° 0.1 mm 3 m/s 754 mmHg 94%
    05:00 -1°C° 0.1 mm 3 m/s 754 mmHg 94%
    06:00 -1°C° 0.1 mm 3 m/s 755 mmHg 94%
    07:00 -1°C° 0.1 mm 3 m/s 755 mmHg 94%
    08:00 -1°C° 0.1 mm 3 m/s 756 mmHg 94%
    09:00 -1°C° 0 mm 3 m/s 756 mmHg 93%
    10:00 0°C° 0 mm 3 m/s 757 mmHg 93%
    11:00 0°C° 0 mm 3 m/s 757 mmHg 93%
    12:00 0°C° 0 mm 3 m/s 758 mmHg 93%
    13:00 +1°C° 0 mm 3 m/s 758 mmHg 92%
    14:00 +1°C° 0 mm 3 m/s 759 mmHg 92%
    15:00 +1°C° 0 mm 3 m/s 759 mmHg 93%
    16:00 0°C° 0 mm 3 m/s 760 mmHg 94%
    17:00 0°C° 0 mm 3 m/s 760 mmHg 94%
    18:00 0°C° 0 mm 3 m/s 761 mmHg 94%
    19:00 +1°C° 0 mm 2 m/s 761 mmHg 94%
    20:00 +1°C° 0 mm 2 m/s 762 mmHg 93%
    21:00 -1°C° 0 mm 2 m/s 762 mmHg 94%
    22:00 -1°C° 0 mm 2 m/s 762 mmHg 94%
    23:00 -1°C° 0 mm 2 m/s 763 mmHg 94%

    Mâine, 16 Noiembrie, Vineri

    Timp Temperatura Precipitaţii Vânt Presiune Umiditate
    00:00 -2°C° 0 mm 2 m/s 763 mmHg 94%
    01:00 -3°C° 0 mm 2 m/s 763 mmHg 94%
    02:00 -3°C° 0 mm 2 m/s 764 mmHg 94%
    03:00 -3°C° 0 mm 2 m/s 764 mmHg 92%
    04:00 -4°C° 0 mm 2 m/s 764 mmHg 91%
    05:00 -4°C° 0 mm 2 m/s 764 mmHg 90%
    06:00 -4°C° 0 mm 2 m/s 764 mmHg 88%
    07:00 -4°C° 0 mm 2 m/s 765 mmHg 86%
    08:00 -4°C° 0 mm 2 m/s 765 mmHg 84%
    09:00 -4°C° 0 mm 3 m/s 765 mmHg 80%
    10:00 -2°C° 0 mm 3 m/s 765 mmHg 75%
    11:00 -1°C° 0 mm 3 m/s 766 mmHg 71%
    12:00 -1°C° 0 mm 3 m/s 766 mmHg 71%
    13:00 0°C° 0 mm 3 m/s 765 mmHg 70%
    14:00 0°C° 0 mm 3 m/s 765 mmHg 70%
    15:00 -1°C° 0 mm 3 m/s 765 mmHg 75%
    16:00 -2°C° 0 mm 3 m/s 766 mmHg 80%
    17:00 -4°C° 0 mm 3 m/s 766 mmHg 85%
    18:00 -5°C° 0 mm 3 m/s 766 mmHg 84%
    19:00 -4°C° 0 mm 2 m/s 766 mmHg 83%
    20:00 -4°C° 0 mm 2 m/s 766 mmHg 82%
    21:00 -5°C° 0 mm 2 m/s 766 mmHg 81%
    22:00 -5°C° 0 mm 2 m/s 766 mmHg 79%
    23:00 -5°C° 0 mm 2 m/s 767 mmHg 77%

    Poimâine, 17 Noiembrie, Sâmbătă

    Timp Temperatura Precipitaţii Vânt Presiune Umiditate
    00:00 -5°C° 0 mm 2 m/s 767 mmHg 75%
    01:00 -6°C° 0 mm 2 m/s 767 mmHg 74%
    02:00 -6°C° 0 mm 2 m/s 767 mmHg 72%
    03:00 -6°C° 0 mm 2 m/s 766 mmHg 71%
    04:00 -6°C° 0 mm 2 m/s 766 mmHg 70%
    05:00 -6°C° 0 mm 2 m/s 766 mmHg 69%
    06:00 -6°C° 0 mm 2 m/s 766 mmHg 68%
    07:00 -6°C° 0 mm 2 m/s 766 mmHg 68%
    08:00 -6°C° 0 mm 2 m/s 766 mmHg 67%
    09:00 -5°C° 0 mm 2 m/s 766 mmHg 63%
    10:00 -3°C° 0 mm 2 m/s 766 mmHg 58%
    11:00 -2°C° 0 mm 2 m/s 766 mmHg 54%
    12:00 -1°C° 0 mm 2 m/s 766 mmHg 55%
    13:00 +1°C° 0 mm 1 m/s 765 mmHg 55%
    14:00 +2°C° 0 mm 1 m/s 765 mmHg 56%
    15:00 0°C° 0 mm 1 m/s 764 mmHg 60%
    16:00 -3°C° 0 mm 2 m/s 764 mmHg 65%
    17:00 -4°C° 0 mm 2 m/s 764 mmHg 69%
    18:00 -4°C° 0 mm 2 m/s 764 mmHg 69%
    19:00 -2°C° 0 mm 1 m/s 763 mmHg 68%
    20:00 -2°C° 0 mm 1 m/s 763 mmHg 68%
    21:00 -2°C° 0 mm 1 m/s 763 mmHg 67%
    22:00 -2°C° 0 mm 1 m/s 762 mmHg 67%
    23:00 -4°C° 0 mm 2 m/s 762 mmHg 66%

    18 Noiembrie, Duminică

    Timp Temperatura Precipitaţii Vânt Presiune Umiditate
    00:00 -4°C° 0 mm 2 m/s 761 mmHg 66%
    01:00 -4°C° 0 mm 2 m/s 760 mmHg 67%
    02:00 -4°C° 0 mm 2 m/s 760 mmHg 67%
    03:00 -4°C° 0 mm 3 m/s 759 mmHg 68%
    04:00 -4°C° 0 mm 3 m/s 758 mmHg 69%
    05:00 -2°C° 0 mm 3 m/s 758 mmHg 70%
    06:00 -2°C° 0 mm 3 m/s 757 mmHg 74%
    07:00 -2°C° 0 mm 4 m/s 756 mmHg 79%
    08:00 -2°C° 0 mm 4 m/s 756 mmHg 84%
    09:00 -2°C° 0 mm 4 m/s 755 mmHg 86%
    10:00 -1°C° 0 mm 4 m/s 755 mmHg 88%
    11:00 -1°C° 0 mm 4 m/s 754 mmHg 89%
    12:00 0°C° 0.1 mm 4 m/s 754 mmHg 90%
    13:00 0°C° 0.1 mm 4 m/s 753 mmHg 91%
    14:00 0°C° 0.1 mm 4 m/s 752 mmHg 91%
    15:00 0°C° 0.1 mm 4 m/s 752 mmHg 92%
    16:00 +1°C° 0.1 mm 3 m/s 752 mmHg 93%
    17:00 0°C° 0.1 mm 3 m/s 751 mmHg 94%
    18:00 0°C° 0.1 mm 3 m/s 751 mmHg 94%
    19:00 0°C° 0.1 mm 3 m/s 751 mmHg 93%
    20:00 0°C° 0.1 mm 3 m/s 750 mmHg 93%
    21:00 0°C° 0.2 mm 3 m/s 750 mmHg 93%
    22:00 0°C° 0.2 mm 3 m/s 750 mmHg 93%
    23:00 0°C° 0.2 mm 3 m/s 750 mmHg 92%

    19 Noiembrie, Luni

    Timp Temperatura Precipitaţii Vânt Presiune Umiditate
    00:00 0°C° 0.3 mm 3 m/s 749 mmHg 93%
    01:00 0°C° 0.3 mm 3 m/s 749 mmHg 94%
    02:00 0°C° 0.3 mm 3 m/s 749 mmHg 94%
    03:00 0°C° 0.1 mm 3 m/s 749 mmHg 95%
    04:00 -1°C° 0.1 mm 3 m/s 749 mmHg 96%
    05:00 -1°C° 0.1 mm 2 m/s 749 mmHg 96%
    06:00 -1°C° 0 mm 2 m/s 749 mmHg 96%
    07:00 -1°C° 0 mm 2 m/s 749 mmHg 96%
    08:00 -1°C° 0 mm 2 m/s 749 mmHg 97%
    09:00 -1°C° 0 mm 3 m/s 749 mmHg 95%
    10:00 0°C° 0 mm 3 m/s 749 mmHg 93%
    11:00 0°C° 0 mm 3 m/s 750 mmHg 91%
    12:00 0°C° 0.1 mm 3 m/s 750 mmHg 90%
    13:00 0°C° 0.1 mm 3 m/s 750 mmHg 90%
    14:00 0°C° 0.1 mm 3 m/s 750 mmHg 89%
    15:00 0°C° 0.1 mm 3 m/s 750 mmHg 90%
    16:00 0°C° 0.1 mm 3 m/s 750 mmHg 90%
    17:00 -1°C° 0.1 mm 3 m/s 751 mmHg 91%
    18:00 -1°C° 0.1 mm 3 m/s 751 mmHg 92%
    19:00 -2°C° 0.1 mm 4 m/s 751 mmHg 92%
    20:00 -2°C° 0.1 mm 4 m/s 751 mmHg 92%
    21:00 -3°C° 0.2 mm 4 m/s 751 mmHg 92%
    22:00 -3°C° 0.2 mm 4 m/s 752 mmHg 92%
    23:00 -3°C° 0.2 mm 4 m/s 752 mmHg 92%

    20 Noiembrie, Marţi

    Timp Temperatura Precipitaţii Vânt Presiune Umiditate
    00:00 -3°C° 0.2 mm 4 m/s 752 mmHg 92%
    01:00 -3°C° 0.2 mm 4 m/s 752 mmHg 92%
    02:00 -3°C° 0.2 mm 4 m/s 752 mmHg 92%
    03:00 -3°C° 0.1 mm 4 m/s 752 mmHg 92%
    04:00 -4°C° 0.1 mm 4 m/s 752 mmHg 92%
    05:00 -4°C° 0.1 mm 4 m/s 752 mmHg 92%
    06:00 -4°C° 0.2 mm 4 m/s 752 mmHg 92%
    07:00 -4°C° 0.2 mm 4 m/s 752 mmHg 92%
    08:00 -4°C° 0.2 mm 4 m/s 752 mmHg 92%
    09:00 -4°C° 0.1 mm 4 m/s 753 mmHg 91%
    10:00 -2°C° 0.1 mm 3 m/s 753 mmHg 89%
    11:00 -2°C° 0.1 mm 3 m/s 753 mmHg 88%
    12:00 -2°C° 0.1 mm 3 m/s 752 mmHg 87%
    13:00 -2°C° 0.1 mm 3 m/s 752 mmHg 87%
    14:00 -1°C° 0.1 mm 3 m/s 752 mmHg 86%
    15:00 -2°C° 0 mm 2 m/s 752 mmHg 88%
    16:00 -2°C° 0 mm 2 m/s 752 mmHg 90%
    17:00 -3°C° 0 mm 2 m/s 752 mmHg 93%
    18:00 -3°C° 0 mm 2 m/s 752 mmHg 93%
    19:00 -3°C° 0 mm 2 m/s 752 mmHg 94%
    20:00 -3°C° 0 mm 2 m/s 751 mmHg 95%
    21:00 -3°C° 0 mm 2 m/s 751 mmHg 95%
    22:00 -4°C° 0 mm 2 m/s 751 mmHg 95%
    23:00 -4°C° 0 mm 2 m/s 751 mmHg 95%
    Arată mai mult